• In Hungary
  • List of Countries
  • For 7 days
  • Water Temperature
  • Satellite Maps
  • Weather Map
  • News
  • Weather Widgets
  • user-avatar
    Login

    Hourly Weather Kuznecovka

    Today, 22 July, Sunday

    Time Temperature Precipitation Wind Pressure Humidity
    00:00 +20°C° 0 mm 1 mps 734 mmHg 96%
    01:00 +19°C° 0 mm 1 mps 734 mmHg 97%
    02:00 +19°C° 0 mm 1 mps 734 mmHg 98%
    03:00 +19°C° 0.1 mm 1 mps 734 mmHg 98%
    04:00 +18°C° 0.1 mm 2 mps 734 mmHg 98%
    05:00 +18°C° 0.1 mm 2 mps 735 mmHg 98%
    06:00 +19°C° 0.2 mm 2 mps 735 mmHg 96%
    07:00 +20°C° 0.2 mm 2 mps 735 mmHg 94%
    08:00 +21°C° 0.2 mm 3 mps 735 mmHg 92%
    09:00 +21°C° 0.1 mm 3 mps 735 mmHg 91%
    10:00 +21°C° 0.1 mm 3 mps 735 mmHg 90%
    11:00 +21°C° 0.1 mm 3 mps 735 mmHg 89%
    12:00 +21°C° 0 mm 3 mps 735 mmHg 88%
    13:00 +21°C° 0 mm 3 mps 735 mmHg 88%
    14:00 +23°C° 0 mm 2 mps 735 mmHg 85%
    15:00 +22°C° 0.1 mm 3 mps 735 mmHg 83%
    16:00 +22°C° 0.1 mm 3 mps 735 mmHg 82%
    17:00 +24°C° 0.1 mm 3 mps 735 mmHg 81%
    18:00 +23°C° 0.2 mm 2 mps 735 mmHg 85%
    19:00 +21°C° 0.2 mm 2 mps 735 mmHg 90%
    20:00 +19°C° 0.2 mm 2 mps 735 mmHg 95%
    21:00 +19°C° 0.2 mm 2 mps 735 mmHg 96%
    22:00 +18°C° 0.2 mm 2 mps 735 mmHg 97%
    23:00 +18°C° 0.2 mm 2 mps 735 mmHg 98%

    Tomorrow, 23 July, Monday

    Time Temperature Precipitation Wind Pressure Humidity
    00:00 +17°C° 0 mm 2 mps 735 mmHg 98%
    01:00 +17°C° 0 mm 2 mps 735 mmHg 98%
    02:00 +17°C° 0 mm 2 mps 735 mmHg 98%
    03:00 +17°C° 0 mm 2 mps 735 mmHg 98%
    04:00 +17°C° 0 mm 2 mps 736 mmHg 98%
    05:00 +17°C° 0 mm 2 mps 736 mmHg 98%
    06:00 +18°C° 0 mm 3 mps 736 mmHg 95%
    07:00 +19°C° 0 mm 3 mps 736 mmHg 92%
    08:00 +19°C° 0 mm 3 mps 736 mmHg 89%
    09:00 +20°C° 0 mm 3 mps 736 mmHg 87%
    10:00 +20°C° 0 mm 3 mps 736 mmHg 85%
    11:00 +20°C° 0 mm 4 mps 736 mmHg 83%
    12:00 +21°C° 0.1 mm 4 mps 736 mmHg 80%
    13:00 +21°C° 0.1 mm 4 mps 736 mmHg 77%
    14:00 +22°C° 0.1 mm 4 mps 736 mmHg 75%
    15:00 +22°C° 0.1 mm 4 mps 736 mmHg 75%
    16:00 +22°C° 0.1 mm 3 mps 736 mmHg 75%
    17:00 +22°C° 0.1 mm 3 mps 736 mmHg 76%
    18:00 +20°C° 0.1 mm 3 mps 736 mmHg 82%
    19:00 +19°C° 0.1 mm 2 mps 737 mmHg 87%
    20:00 +18°C° 0.1 mm 2 mps 737 mmHg 93%
    21:00 +17°C° 0 mm 2 mps 737 mmHg 94%
    22:00 +17°C° 0 mm 2 mps 737 mmHg 94%
    23:00 +17°C° 0 mm 2 mps 737 mmHg 95%

    Day after tomorrow, 24 July, Tuesday

    Time Temperature Precipitation Wind Pressure Humidity
    00:00 +16°C° 0 mm 2 mps 737 mmHg 96%
    01:00 +16°C° 0 mm 2 mps 737 mmHg 97%
    02:00 +16°C° 0 mm 2 mps 737 mmHg 98%
    03:00 +16°C° 0 mm 2 mps 737 mmHg 97%
    04:00 +16°C° 0 mm 3 mps 737 mmHg 97%
    05:00 +16°C° 0 mm 3 mps 737 mmHg 96%
    06:00 +16°C° 0.1 mm 3 mps 737 mmHg 96%
    07:00 +16°C° 0.1 mm 3 mps 737 mmHg 95%
    08:00 +17°C° 0.1 mm 3 mps 737 mmHg 94%
    09:00 +18°C° 0 mm 3 mps 738 mmHg 91%
    10:00 +19°C° 0 mm 3 mps 738 mmHg 88%
    11:00 +20°C° 0 mm 3 mps 738 mmHg 85%
    12:00 +20°C° 0 mm 3 mps 738 mmHg 83%
    13:00 +21°C° 0 mm 3 mps 738 mmHg 82%
    14:00 +22°C° 0 mm 3 mps 738 mmHg 80%
    15:00 +21°C° 0.1 mm 3 mps 738 mmHg 81%
    16:00 +21°C° 0.1 mm 3 mps 738 mmHg 82%
    17:00 +21°C° 0.1 mm 3 mps 738 mmHg 83%
    18:00 +20°C° 0 mm 3 mps 738 mmHg 87%
    19:00 +20°C° 0 mm 2 mps 738 mmHg 90%
    20:00 +19°C° 0 mm 2 mps 738 mmHg 94%
    21:00 +18°C° 0 mm 2 mps 738 mmHg 95%
    22:00 +18°C° 0 mm 2 mps 738 mmHg 96%
    23:00 +18°C° 0 mm 2 mps 738 mmHg 98%

    25 July, Wednesday

    Time Temperature Precipitation Wind Pressure Humidity
    00:00 +17°C° 0 mm 2 mps 738 mmHg 98%
    01:00 +17°C° 0 mm 2 mps 738 mmHg 98%
    02:00 +17°C° 0 mm 2 mps 738 mmHg 99%
    03:00 +17°C° 0.3 mm 2 mps 738 mmHg 99%
    04:00 +17°C° 0.3 mm 2 mps 739 mmHg 99%
    05:00 +18°C° 0.3 mm 2 mps 739 mmHg 99%
    06:00 +19°C° 0.1 mm 2 mps 739 mmHg 97%
    07:00 +20°C° 0.1 mm 2 mps 739 mmHg 95%
    08:00 +20°C° 0.1 mm 3 mps 740 mmHg 93%
    09:00 +21°C° 0.4 mm 3 mps 740 mmHg 91%
    10:00 +21°C° 0.4 mm 3 mps 740 mmHg 89%
    11:00 +22°C° 0.4 mm 3 mps 740 mmHg 88%
    12:00 +22°C° 0.2 mm 3 mps 740 mmHg 85%
    13:00 +23°C° 0.2 mm 2 mps 740 mmHg 83%
    14:00 +23°C° 0.2 mm 1 mps 740 mmHg 80%
    15:00 +21°C° 0.2 mm 2 mps 740 mmHg 82%
    16:00 +21°C° 0.2 mm 2 mps 740 mmHg 83%
    17:00 +21°C° 0.2 mm 2 mps 740 mmHg 84%
    18:00 +21°C° 0.1 mm 2 mps 740 mmHg 86%
    19:00 +20°C° 0.1 mm 3 mps 740 mmHg 87%
    20:00 +20°C° 0.1 mm 3 mps 740 mmHg 88%
    21:00 +19°C° 0 mm 3 mps 740 mmHg 88%
    22:00 +19°C° 0 mm 3 mps 740 mmHg 89%
    23:00 +18°C° 0 mm 3 mps 739 mmHg 90%

    26 July, Thursday

    Time Temperature Precipitation Wind Pressure Humidity
    00:00 +18°C° 0 mm 3 mps 739 mmHg 89%
    01:00 +17°C° 0 mm 3 mps 739 mmHg 87%
    02:00 +17°C° 0 mm 3 mps 739 mmHg 86%
    03:00 +17°C° 0 mm 3 mps 739 mmHg 85%
    04:00 +17°C° 0 mm 3 mps 739 mmHg 85%
    05:00 +17°C° 0 mm 3 mps 740 mmHg 84%
    06:00 +18°C° 0 mm 4 mps 740 mmHg 81%
    07:00 +20°C° 0 mm 4 mps 740 mmHg 77%
    08:00 +21°C° 0 mm 4 mps 740 mmHg 73%
    09:00 +23°C° 0 mm 4 mps 740 mmHg 70%
    10:00 +25°C° 0 mm 4 mps 740 mmHg 66%
    11:00 +27°C° 0 mm 4 mps 741 mmHg 62%
    12:00 +27°C° 0 mm 4 mps 741 mmHg 60%
    13:00 +28°C° 0 mm 4 mps 741 mmHg 59%
    14:00 +29°C° 0 mm 4 mps 741 mmHg 57%
    15:00 +29°C° 0.3 mm 3 mps 741 mmHg 61%
    16:00 +28°C° 0.3 mm 3 mps 741 mmHg 65%
    17:00 +28°C° 0.3 mm 2 mps 741 mmHg 70%
    18:00 +26°C° 0.3 mm 2 mps 741 mmHg 74%
    19:00 +25°C° 0.3 mm 2 mps 741 mmHg 79%
    20:00 +23°C° 0.3 mm 2 mps 741 mmHg 84%
    21:00 +21°C° 0.2 mm 2 mps 741 mmHg 86%
    22:00 +21°C° 0.2 mm 2 mps 741 mmHg 87%
    23:00 +20°C° 0.2 mm 2 mps 742 mmHg 89%

    27 July, Friday

    Time Temperature Precipitation Wind Pressure Humidity
    00:00 +19°C° 0.1 mm 2 mps 742 mmHg 91%
    01:00 +19°C° 0.1 mm 2 mps 742 mmHg 93%
    02:00 +19°C° 0.1 mm 2 mps 742 mmHg 95%
    03:00 +19°C° 0 mm 2 mps 742 mmHg 95%
    04:00 +19°C° 0 mm 2 mps 742 mmHg 95%
    05:00 +19°C° 0 mm 2 mps 742 mmHg 95%
    06:00 +20°C° 0 mm 3 mps 742 mmHg 90%
    07:00 +22°C° 0 mm 3 mps 743 mmHg 85%
    08:00 +24°C° 0 mm 3 mps 743 mmHg 79%
    09:00 +26°C° 0 mm 3 mps 743 mmHg 72%
    10:00 +28°C° 0 mm 4 mps 743 mmHg 66%
    11:00 +29°C° 0 mm 4 mps 743 mmHg 59%
    12:00 +29°C° 0.6 mm 4 mps 743 mmHg 60%
    13:00 +29°C° 0.6 mm 4 mps 743 mmHg 62%
    14:00 +29°C° 0.6 mm 3 mps 743 mmHg 63%
    15:00 +28°C° 0.2 mm 3 mps 743 mmHg 68%
    16:00 +27°C° 0.2 mm 3 mps 743 mmHg 72%
    17:00 +26°C° 0.2 mm 2 mps 743 mmHg 77%
    18:00 +25°C° 0.2 mm 2 mps 743 mmHg 80%
    19:00 +24°C° 0.2 mm 2 mps 743 mmHg 82%
    20:00 +23°C° 0.2 mm 2 mps 743 mmHg 85%
    21:00 +23°C° 1.9 mm 2 mps 744 mmHg 88%
    22:00 +21°C° 1.9 mm 2 mps 744 mmHg 91%
    23:00 +21°C° 1.9 mm 1 mps 744 mmHg 94%
    Show more